Location: Nairn
(57.5833°N, 3.8667°W)
Time: 03:31:58
(UTC+00:00)

Cosmos 1805 - Pass Details

Date: 07 August 2020
Orbit: 526 x 530 km, 82.5° (Epoch: 25 September)

Event Time Altitude Azimuth Distance (km) Brightness Sun altitude
Exits shadow 02:59:04 13° 213° (SSW) 1,609 5.0 -9.2°
Maximum altitude 03:02:27 51° 288° (WNW) 676 3.6 -8.9°
Drops below altitude 10° 03:06:17 10° 5° (N) 1,785 6.9 -8.6°
Sets 03:08:29 0° 11° (N) 2,679 8.0 -8.4°
